Regional Weather Roundup
Issued by NWS

Home | Current Version | Previous Version | Graphics & Text | Print | Product List | Glossary On
Versions: 1 2 3 4 5 6 7 8 9 10 11 12 13 14 15 16 17 18 19 20 21 22 23 24 25 26 27 28 29 30 31 32 33 34 35 36 37 38 39 40 41 42 43 44 45 46 47 48 49 50
000
ASUS43 KBIS 251310
RWRND

NORTH DAKOTA REGIONAL WEATHER ROUNDUP
NATIONAL WEATHER SERVICE BISMARCK ND
700 AM CST SUN JAN 25 2015

NOTE: "FAIR" INDICATES FEW OR NO CLOUDS BELOW 12,000 FEET WITH NO
SIGNIFICANT WEATHER AND/OR OBSTRUCTIONS TO VISIBILITY.


NDZ001>003-009>011-017-251400-
NORTHWEST NORTH DAKOTA

CITY           SKY/WX    TMP DP  RH WIND       PRES   REMARKS
WILLISTON      CLOUDY    33  28  81 NW8       29.99S
MINOT          LGT SNOW  23  21  92 N3        29.97R FOG
MINOT AFB      FRZ DRZL  21  21 100 N6        29.97R WCI  14
$$

NDZ018>021-031>035-040>046-251400-
SOUTHWEST NORTH DAKOTA

CITY           SKY/WX    TMP DP  RH WIND       PRES   REMARKS
BISMARCK       CLOUDY    36  32  85 NW9       29.96R
DICKINSON      CLOUDY    34  28  79 NW16      29.97R
GARRISON         N/A     34  32  92 NW10      29.95R
HETTINGER ARPT CLOUDY    33  27  78 NW15      30.00R
$$

NDZ004>008-012>016-024-026-027-054-251400-
NORTHEAST NORTH DAKOTA

CITY           SKY/WX    TMP DP  RH WIND       PRES   REMARKS
GRAND FORKS    PTCLDY    11   7  84 N5        30.02R WCI   3
GRND FRKS AFB  CLEAR     10   6  84 N7        30.02R WCI  -2
DEVILS LAKE    CLOUDY    16  10  79 NE3       29.97R
$$

NDZ022-023-025-028>030-036>039-047>053-251400-
SOUTHEAST NORTH DAKOTA

CITY           SKY/WX    TMP DP  RH WIND       PRES   REMARKS
FARGO          CLOUDY    21  15  78 N10       29.98R WCI  10
JAMESTOWN      CLOUDY    19  16  88 N5        29.96R WCI  12
$$




USA.gov is the U.S. government's official web portal to all federal, state and local government web resources and services.